This demonstration page uses our WeatherBlox Daily Observations layout. Learn more.

Hourly Observations for April 30, 2018

Temp ( °F °C ) Dew Point ( °F °C ) Humidity (%) Winds ( mph kmh ) Pressure ( in mb ) Visibility ( mi km ) Precip ( " mm )
12:54 am 00:54 Clear 66 18.9 48 8.9 52 52 SSE 23 37 29.86 1011 10 16.0934 0 0
1:54 am 01:54 Clear 66 18.9 48 8.9 52 52 SSE 24 39 29.84 1011 10 16.0934 0 0
2:54 am 02:54 Clear 64 17.8 49 9.4 58 58 S 20 31 29.82 1010 10 16.0934 0 0
3:54 am 03:54 Clear 63 17.2 49 9.4 60 60 S 16 26 29.82 1010 10 16.0934 0 0
4:54 am 04:54 Clear 62 16.7 49 9.4 62 62 S 15 24 29.82 1010 10 16.0934 0 0
5:54 am 05:54 Clear 62 16.7 49 9.4 62 62 S 16 26 29.81 1009 10 16.0934 0 0
6:54 am 06:54 Sunny 63 17.2 50 10 63 63 S 21 33 29.81 1009 10 16.0934 0 0
7:54 am 07:54 Sunny 65 18.3 51 10.6 61 61 S 25 41 29.81 1009 10 16.0934 0 0
8:54 am 08:54 Sunny 69 20.6 52 11.1 55 55 S 28 44 29.8 1009 10 16.0934 0 0
9:54 am 09:54 Sunny 68 20 52 11.1 57 57 S 29 46 29.8 1009 10 16.0934 0 0
10:54 am 10:54 Mostly Sunny 69 20.6 53 11.7 57 57 S 25 41 29.77 1008 10 16.0934 0 0
11:54 am 11:54 Sunny 79 26.1 54 12.2 42 42 SSW 31 50 29.72 1007 10 16.0934 0 0
12:54 pm 12:54 Sunny 74 23.3 54 12.2 50 50 S 21 33 29.73 1007 10 16.0934 0 0.0254
1:54 pm 13:54 Sunny 83 28.3 53 11.7 36 36 S 43 69 29.68 1005 10 16.0934 0 0
2:54 pm 14:54 Sunny 84 28.9 52 11.1 33 33 S 33 54 29.66 1005 10 16.0934 0 0
3:54 pm 15:54 Sunny 84 28.9 50 10 31 31 S 33 54 29.65 1004 10 16.0934 0 0
4:54 pm 16:54 Sunny 85 29.4 51 10.6 31 31 S 38 61 29.62 1003 10 16.0934 0 0
5:54 pm 17:54 Sunny 82 27.8 50 10 33 33 S 32 52 29.64 1004 10 16.0934 0 0
6:54 pm 18:54 Sunny 81 27.2 45 7.2 28 28 S 29 46 29.62 1003 10 16.0934 0 0
7:54 pm 19:54 Sunny 77 25 45 7.2 32 32 S 17 28 29.65 1004 10 16.0934 0 0
8:54 pm 20:54 Clear 76 24.4 45 7.2 33 33 S 22 35 29.65 1004 10 16.0934 0 0
9:54 pm 21:54 Clear 75 23.9 45 7.2 34 34 S 25 41 29.66 1004 10 16.0934 0 0
10:54 pm 22:54 Clear 73 22.8 47 8.3 40 40 S 21 33 29.67 1005 10 16.0934 0 0
11:54 pm 23:54 Clear 72 22.2 49 9.4 44 44 S 17 28 29.66 1004 10 16.0934 0 0

Powered by AerisWeather